Location: Friaudour
(46.0460°N, 1.2873°E)
Time: 08:39:42
(UTC+00:00)

CENTAUR R/B - Pass Details

Date: 14 July 2020
Orbit: 756 x 1432 km, 63.5° (Epoch: 11 August)

Event Time Altitude Azimuth Distance (km) Brightness Sun altitude
Exits shadow 03:08:53 - 178° (S) 3,250 4.8 -10.1°
Reaches altitude 10° 03:11:12 10° 167° (SSE) 2,503 4.3 -9.8°
Maximum altitude 03:16:02 28° 110° (ESE) 1,706 4.1 -9.2°
Drops below altitude 10° 03:21:32 10° 55° (NE) 2,878 6.6 -8.5°
Sets 03:24:46 0° 45° (NE) 3,959 8.3 -8.1°
